CZ-4B DEB, 37580

Orbit data source: Space-Track

CZ-4B DEB, 37580 is space debris in SSO originally from a launch on Mon, 10 May 1999 UTC launched from the Taiyaun Space Center, China (TSC). Debris objects in space refer to the collection of defunct objects orbiting the Earth. Examples of debris include non-operational satellites, rocket bodies, and fragments generated from explosions, collisions, or faulty payload assembly.

Loading next visibility...
Identifier
37580, 1999-025EKD
Orbit
SSO
Country
Flag of CNCN / PRC
Related business
Manufacturer
Unknown
Mission
Spacecraft
Bus & Motor
Unknown
Mass
Unknown
Launch date (UTC)
1999-05-10 (26 years ago)
Launch vehicle
Unknown
Launch site
Taiyaun Space Center, China (TSC)
Object type
Payload
Rocket body
Debris
Shape & HBR
Unknown shape, 0.1 m
Radar Cross Section
Small (<0.1 m²)

Expand to show TLE details & history
Last TLE update: 13 hours ago

TLE from 13 hours ago
0 CZ-4B DEB
1 37580U 99025EKD 25302.38739133  .00000908  00000-0  51826-3 0  9999
2 37580  98.8372 341.7969 0123386 335.7315  38.8704 14.08397409145264
Epoch: 2025-10-29T09:17Z
TLE epoch observation values (Epoch: 2025-10-29T09:17:50.610Z)
Latitude
15.28887°
Longitude
161.95193°
Altitude
797.91 km
Speed
7.491 km/s
True Right ascension
22h 37m 29s
True Declination
15° 12' 08"
Sunlit
Object was in full shadow at epoch
Visualization orbit readout
Latitude
Unknown
Longitude
Unknown
Altitude
Unknown
Speed
Unknown
Apparent Right ascension
Unknown
Apparent Declination
Unknown
Sunlit
N/A
Visualization observer readout
Local Sidereal Time
17:37:31
Azimuth
Unknown
Elevation
Unknown
Doppler factor
Unknown
Orbital elements
Apogee altitude
951.374 km
Perigee altitude
772.707 km
Semi-major axis
7,240.178 km
Eccentricity
0.01234
Inclination
98.8372°
RAAN
341.7969°
Arg. of periapsis
335.7315°
True anomaly
39.76845°
Mean anomaly
38.8704°
Eccentric anomaly
39.31834°
Mean motion
3.52305 °/min
Orbital period
102.18 mins
BSTAR
0.00051826
Loading maneuver chart data...
Computing Atmospheric mass density...

Documentation

Showing up to 5 results
|